owner,sensor,date,latitude,longitude,air_pressure(mBar),qcFlag 
WAVCIS,ioos:station:WAVCIS:CSI03:1,2009-12-01T00:00:00Z,29.4412,-92.0613,1014.66,11111222 
WAVCIS,ioos:station:WAVCIS:CSI03:1,2009-12-01T01:00:00Z,29.4412,-92.0613,1015.03,11111222 
WAVCIS,ioos:station:WAVCIS:CSI03:1,2009-12-01T02:00:00Z,29.4412,-92.0613,1015.09,11111222 
WAVCIS,ioos:station:WAVCIS:CSI03:1,2009-12-01T03:00:00Z,29.4412,-92.0613,1015.61,11111222 
WAVCIS,ioos:station:WAVCIS:CSI03:1,2009-12-01T04:00:00Z,29.4412,-92.0613,1015.3,11111222 
WAVCIS,ioos:station:WAVCIS:CSI03:1,2009-12-01T05:00:00Z,29.4412,-92.0613,1014.87,11111222 
WAVCIS,ioos:station:WAVCIS:CSI03:1,2009-12-01T06:00:00Z,29.4412,-92.0613,1014.6,11111222 
WAVCIS,ioos:station:WAVCIS:CSI03:1,2009-12-01T07:00:00Z,29.4412,-92.0613,1014.56,11111222 
WAVCIS,ioos:station:WAVCIS:CSI03:1,2009-12-01T08:00:00Z,29.4412,-92.0613,1013.66,11111222 
WAVCIS,ioos:station:WAVCIS:CSI03:1,2009-12-01T09:00:00Z,29.4412,-92.0613,1013.61,11111222 
WAVCIS,ioos:station:WAVCIS:CSI03:1,2009-12-01T10:00:00Z,29.4412,-92.0613,1012.57,11111222 
WAVCIS,ioos:station:WAVCIS:CSI03:1,2009-12-01T11:00:00Z,29.4412,-92.0613,1010.92,11111222 
WAVCIS,ioos:station:WAVCIS:CSI03:1,2009-12-01T12:00:00Z,29.4412,-92.0613,1012.61,11111222 
WAVCIS,ioos:station:WAVCIS:CSI03:1,2009-12-01T13:00:00Z,29.4412,-92.0613,1012.1,11111222 
WAVCIS,ioos:station:WAVCIS:CSI03:1,2009-12-01T14:00:00Z,29.4412,-92.0613,1012.46,11111222 
WAVCIS,ioos:station:WAVCIS:CSI03:1,2009-12-01T15:00:00Z,29.4412,-92.0613,1011.98,11111222 
WAVCIS,ioos:station:WAVCIS:CSI03:1,2009-12-01T16:00:00Z,29.4412,-92.0613,1010.43,11111222 
WAVCIS,ioos:station:WAVCIS:CSI03:1,2009-12-01T17:00:00Z,29.4412,-92.0613,1009.76,11111222 
WAVCIS,ioos:station:WAVCIS:CSI03:1,2009-12-01T18:00:00Z,29.4412,-92.0613,1007.85,11111222 
WAVCIS,ioos:station:WAVCIS:CSI03:1,2009-12-01T19:00:00Z,29.4412,-92.0613,1004.57,11111222 
WAVCIS,ioos:station:WAVCIS:CSI03:1,2009-12-01T20:00:00Z,29.4412,-92.0613,1003.472,11111222 
WAVCIS,ioos:station:WAVCIS:CSI03:1,2009-12-01T21:00:00Z,29.4412,-92.0613,1005.909,11111222 
WAVCIS,ioos:station:WAVCIS:CSI03:1,2009-12-01T22:00:00Z,29.4412,-92.0613,1003.449,11111222 
WAVCIS,ioos:station:WAVCIS:CSI03:1,2009-12-01T23:00:00Z,29.4412,-92.0613,1000.586,11111222 
WAVCIS,ioos:station:WAVCIS:CSI03:1,2009-12-02T00:00:00Z,29.4412,-92.0613,999.413,11111222 
WAVCIS,ioos:station:WAVCIS:CSI03:1,2009-12-02T01:00:00Z,29.4412,-92.0613,998.193,11111222 
WAVCIS,ioos:station:WAVCIS:CSI03:1,2009-12-02T02:00:00Z,29.4412,-92.0613,998.786,11111222 
WAVCIS,ioos:station:WAVCIS:CSI03:1,2009-12-02T03:00:00Z,29.4412,-92.0613,999.674,11111222 
WAVCIS,ioos:station:WAVCIS:CSI03:1,2009-12-02T04:00:00Z,29.4412,-92.0613,998.53,11111222 
WAVCIS,ioos:station:WAVCIS:CSI03:1,2009-12-02T05:00:00Z,29.4412,-92.0613,996.887,11111222 
WAVCIS,ioos:station:WAVCIS:CSI03:1,2009-12-02T06:00:00Z,29.4412,-92.0613,998.541,11111222 
WAVCIS,ioos:station:WAVCIS:CSI03:1,2009-12-02T07:00:00Z,29.4412,-92.0613,999.449,11111222 
WAVCIS,ioos:station:WAVCIS:CSI03:1,2009-12-02T08:00:00Z,29.4412,-92.0613,998.46,11111222 
WAVCIS,ioos:station:WAVCIS:CSI03:1,2009-12-02T09:00:00Z,29.4412,-92.0613,997.988,11111222 
WAVCIS,ioos:station:WAVCIS:CSI03:1,2009-12-02T10:00:00Z,29.4412,-92.0613,997.995,11111222 
WAVCIS,ioos:station:WAVCIS:CSI03:1,2009-12-02T11:00:00Z,29.4412,-92.0613,999.505,11111222 
WAVCIS,ioos:station:WAVCIS:CSI03:1,2009-12-02T12:00:00Z,29.4412,-92.0613,999.69,11111222 
WAVCIS,ioos:station:WAVCIS:CSI03:1,2009-12-02T13:00:00Z,29.4412,-92.0613,999.873,11111222 
WAVCIS,ioos:station:WAVCIS:CSI03:1,2009-12-02T14:00:00Z,29.4412,-92.0613,1000.9,11111222 
WAVCIS,ioos:station:WAVCIS:CSI03:1,2009-12-02T15:00:00Z,29.4412,-92.0613,1001.807,11111222 
WAVCIS,ioos:station:WAVCIS:CSI03:1,2009-12-02T16:00:00Z,29.4412,-92.0613,1002.488,11111222 
WAVCIS,ioos:station:WAVCIS:CSI03:1,2009-12-02T17:00:00Z,29.4412,-92.0613,1003.146,11111222 
WAVCIS,ioos:station:WAVCIS:CSI03:1,2009-12-02T18:00:00Z,29.4412,-92.0613,1003.225,11111222 
WAVCIS,ioos:station:WAVCIS:CSI03:1,2009-12-02T19:00:00Z,29.4412,-92.0613,1003.328,11111222 
WAVCIS,ioos:station:WAVCIS:CSI03:1,2009-12-02T20:00:00Z,29.4412,-92.0613,1003.688,11111222 
WAVCIS,ioos:station:WAVCIS:CSI03:1,2009-12-02T21:00:00Z,29.4412,-92.0613,1004.242,11111222 
WAVCIS,ioos:station:WAVCIS:CSI03:1,2009-12-02T22:00:00Z,29.4412,-92.0613,1004.82,11111222 
WAVCIS,ioos:station:WAVCIS:CSI03:1,2009-12-02T23:00:00Z,29.4412,-92.0613,1006.315,11111222 
WAVCIS,ioos:station:WAVCIS:CSI03:1,2009-12-03T00:00:00Z,29.4412,-92.0613,1007.17,11111222 
WAVCIS,ioos:station:WAVCIS:CSI03:1,2009-12-03T01:00:00Z,29.4412,-92.0613,1008.46,11111222 
WAVCIS,ioos:station:WAVCIS:CSI03:1,2009-12-03T02:00:00Z,29.4412,-92.0613,1009.87,11111222 
WAVCIS,ioos:station:WAVCIS:CSI03:1,2009-12-03T03:00:00Z,29.4412,-92.0613,1011.1,11111222 
WAVCIS,ioos:station:WAVCIS:CSI03:1,2009-12-03T04:00:00Z,29.4412,-92.0613,1011.51,11111222 
WAVCIS,ioos:station:WAVCIS:CSI03:1,2009-12-03T05:00:00Z,29.4412,-92.0613,1012.32,11111222 
WAVCIS,ioos:station:WAVCIS:CSI03:1,2009-12-03T06:00:00Z,29.4412,-92.0613,1012.34,11111222 
WAVCIS,ioos:station:WAVCIS:CSI03:1,2009-12-03T07:00:00Z,29.4412,-92.0613,1012.71,11111222 
WAVCIS,ioos:station:WAVCIS:CSI03:1,2009-12-03T08:00:00Z,29.4412,-92.0613,1013.35,11111222 
WAVCIS,ioos:station:WAVCIS:CSI03:1,2009-12-03T09:00:00Z,29.4412,-92.0613,1013.72,11111222 
WAVCIS,ioos:station:WAVCIS:CSI03:1,2009-12-03T10:00:00Z,29.4412,-92.0613,1014.16,11111222 
WAVCIS,ioos:station:WAVCIS:CSI03:1,2009-12-03T11:00:00Z,29.4412,-92.0613,1014.99,11111222 
WAVCIS,ioos:station:WAVCIS:CSI03:1,2009-12-03T12:00:00Z,29.4412,-92.0613,1015.82,11111222 
WAVCIS,ioos:station:WAVCIS:CSI03:1,2009-12-03T13:00:00Z,29.4412,-92.0613,1016.41,11111222 
WAVCIS,ioos:station:WAVCIS:CSI03:1,2009-12-03T14:00:00Z,29.4412,-92.0613,1016.98,11111222 
WAVCIS,ioos:station:WAVCIS:CSI03:1,2009-12-03T15:00:00Z,29.4412,-92.0613,1017.6,11111222 
WAVCIS,ioos:station:WAVCIS:CSI03:1,2009-12-03T16:00:00Z,29.4412,-92.0613,1018.43,11111222 
WAVCIS,ioos:station:WAVCIS:CSI03:1,2009-12-03T17:00:00Z,29.4412,-92.0613,1018.8,11111222 
WAVCIS,ioos:station:WAVCIS:CSI03:1,2009-12-03T18:00:00Z,29.4412,-92.0613,1018.18,11111222 
WAVCIS,ioos:station:WAVCIS:CSI03:1,2009-12-03T19:00:00Z,29.4412,-92.0613,1017.56,11111222 
WAVCIS,ioos:station:WAVCIS:CSI03:1,2009-12-03T20:00:00Z,29.4412,-92.0613,1017.34,11111222 
WAVCIS,ioos:station:WAVCIS:CSI03:1,2009-12-03T21:00:00Z,29.4412,-92.0613,1017.18,11111222 
WAVCIS,ioos:station:WAVCIS:CSI03:1,2009-12-03T22:00:00Z,29.4412,-92.0613,1017.15,11111222 
WAVCIS,ioos:station:WAVCIS:CSI03:1,2009-12-03T23:00:00Z,29.4412,-92.0613,1017.57,11111222 
WAVCIS,ioos:station:WAVCIS:CSI03:1,2009-12-04T00:00:00Z,29.4412,-92.0613,1018.06,11111222 
WAVCIS,ioos:station:WAVCIS:CSI03:1,2009-12-04T01:00:00Z,29.4412,-92.0613,1018.86,11111222 
WAVCIS,ioos:station:WAVCIS:CSI03:1,2009-12-04T02:00:00Z,29.4412,-92.0613,1019.24,11111222 
WAVCIS,ioos:station:WAVCIS:CSI03:1,2009-12-04T03:00:00Z,29.4412,-92.0613,1019.28,11111222 
WAVCIS,ioos:station:WAVCIS:CSI03:1,2009-12-04T04:00:00Z,29.4412,-92.0613,1019.64,11111222 
WAVCIS,ioos:station:WAVCIS:CSI03:1,2009-12-04T05:00:00Z,29.4412,-92.0613,1019.74,11111222 
WAVCIS,ioos:station:WAVCIS:CSI03:1,2009-12-04T06:00:00Z,29.4412,-92.0613,1019.6,11111222 
WAVCIS,ioos:station:WAVCIS:CSI03:1,2009-12-04T07:00:00Z,29.4412,-92.0613,1019.16,11111222 
WAVCIS,ioos:station:WAVCIS:CSI03:1,2009-12-04T08:00:00Z,29.4412,-92.0613,1019.53,11111222 
WAVCIS,ioos:station:WAVCIS:CSI03:1,2009-12-04T09:00:00Z,29.4412,-92.0613,1019.43,11111222 
WAVCIS,ioos:station:WAVCIS:CSI03:1,2009-12-04T10:00:00Z,29.4412,-92.0613,1019.28,11111222 
WAVCIS,ioos:station:WAVCIS:CSI03:1,2009-12-04T11:00:00Z,29.4412,-92.0613,1019.53,11111222 
WAVCIS,ioos:station:WAVCIS:CSI03:1,2009-12-04T12:00:00Z,29.4412,-92.0613,1019.31,11111222 
WAVCIS,ioos:station:WAVCIS:CSI03:1,2009-12-04T13:00:00Z,29.4412,-92.0613,1019.56,11111222 
WAVCIS,ioos:station:WAVCIS:CSI03:1,2009-12-04T14:00:00Z,29.4412,-92.0613,1020.37,11111222 
WAVCIS,ioos:station:WAVCIS:CSI03:1,2009-12-04T15:00:00Z,29.4412,-92.0613,1019.58,11111222 
WAVCIS,ioos:station:WAVCIS:CSI03:1,2009-12-04T16:00:00Z,29.4412,-92.0613,1020.81,11111222 
WAVCIS,ioos:station:WAVCIS:CSI03:1,2009-12-04T17:00:00Z,29.4412,-92.0613,1019.32,11111222 
WAVCIS,ioos:station:WAVCIS:CSI03:1,2009-12-04T18:00:00Z,29.4412,-92.0613,1018.14,11111222 
WAVCIS,ioos:station:WAVCIS:CSI03:1,2009-12-04T19:00:00Z,29.4412,-92.0613,1017.13,11111222 
WAVCIS,ioos:station:WAVCIS:CSI03:1,2009-12-04T20:00:00Z,29.4412,-92.0613,1016.41,11111222 
WAVCIS,ioos:station:WAVCIS:CSI03:1,2009-12-04T21:00:00Z,29.4412,-92.0613,1017.1,11111222 
WAVCIS,ioos:station:WAVCIS:CSI03:1,2009-12-04T22:00:00Z,29.4412,-92.0613,1018.65,11111222 
WAVCIS,ioos:station:WAVCIS:CSI03:1,2009-12-04T23:00:00Z,29.4412,-92.0613,1018.08,11111222 
WAVCIS,ioos:station:WAVCIS:CSI03:1,2009-12-05T00:00:00Z,29.4412,-92.0613,1018.47,11111222 
WAVCIS,ioos:station:WAVCIS:CSI03:1,2009-12-05T01:00:00Z,29.4412,-92.0613,1018.95,11111222 
WAVCIS,ioos:station:WAVCIS:CSI03:1,2009-12-05T02:00:00Z,29.4412,-92.0613,1019.29,11111222 
WAVCIS,ioos:station:WAVCIS:CSI03:1,2009-12-05T03:00:00Z,29.4412,-92.0613,1019.81,11111222 
WAVCIS,ioos:station:WAVCIS:CSI03:1,2009-12-05T04:00:00Z,29.4412,-92.0613,1020.7,11111222 
WAVCIS,ioos:station:WAVCIS:CSI03:1,2009-12-05T05:00:00Z,29.4412,-92.0613,1021.35,11111222 
WAVCIS,ioos:station:WAVCIS:CSI03:1,2009-12-05T06:00:00Z,29.4412,-92.0613,1021.32,11111222 
WAVCIS,ioos:station:WAVCIS:CSI03:1,2009-12-05T07:00:00Z,29.4412,-92.0613,1021.67,11111222 
WAVCIS,ioos:station:WAVCIS:CSI03:1,2009-12-05T08:00:00Z,29.4412,-92.0613,1021.54,11111222 
WAVCIS,ioos:station:WAVCIS:CSI03:1,2009-12-05T09:00:00Z,29.4412,-92.0613,1021.79,11111222 
WAVCIS,ioos:station:WAVCIS:CSI03:1,2009-12-05T10:00:00Z,29.4412,-92.0613,1021.84,11111222 
WAVCIS,ioos:station:WAVCIS:CSI03:1,2009-12-05T11:00:00Z,29.4412,-92.0613,1021.85,11111222 
WAVCIS,ioos:station:WAVCIS:CSI03:1,2009-12-05T12:00:00Z,29.4412,-92.0613,1021.96,11111222 
WAVCIS,ioos:station:WAVCIS:CSI03:1,2009-12-05T13:00:00Z,29.4412,-92.0613,1022.84,11111222 
WAVCIS,ioos:station:WAVCIS:CSI03:1,2009-12-05T14:00:00Z,29.4412,-92.0613,1023.31,11111222 
WAVCIS,ioos:station:WAVCIS:CSI03:1,2009-12-05T15:00:00Z,29.4412,-92.0613,1023.46,11111222 
WAVCIS,ioos:station:WAVCIS:CSI03:1,2009-12-05T16:00:00Z,29.4412,-92.0613,1023.49,11111222 
WAVCIS,ioos:station:WAVCIS:CSI03:1,2009-12-05T17:00:00Z,29.4412,-92.0613,1023.24,11111222 
WAVCIS,ioos:station:WAVCIS:CSI03:1,2009-12-05T18:00:00Z,29.4412,-92.0613,1022.2,11111222 
WAVCIS,ioos:station:WAVCIS:CSI03:1,2009-12-05T19:00:00Z,29.4412,-92.0613,1021.54,11111222 
WAVCIS,ioos:station:WAVCIS:CSI03:1,2009-12-05T20:00:00Z,29.4412,-92.0613,1021.01,11111222 
WAVCIS,ioos:station:WAVCIS:CSI03:1,2009-12-05T21:00:00Z,29.4412,-92.0613,1020.83,11111222 
WAVCIS,ioos:station:WAVCIS:CSI03:1,2009-12-05T22:00:00Z,29.4412,-92.0613,1020.86,11111222 
WAVCIS,ioos:station:WAVCIS:CSI03:1,2009-12-05T23:00:00Z,29.4412,-92.0613,1020.74,11111222 
WAVCIS,ioos:station:WAVCIS:CSI03:1,2009-12-06T00:00:00Z,29.4412,-92.0613,1020.47,11111222 
WAVCIS,ioos:station:WAVCIS:CSI03:1,2009-12-06T01:00:00Z,29.4412,-92.0613,1020.06,11111222 
WAVCIS,ioos:station:WAVCIS:CSI03:1,2009-12-06T02:00:00Z,29.4412,-92.0613,1020.21,11111222 
WAVCIS,ioos:station:WAVCIS:CSI03:1,2009-12-06T03:00:00Z,29.4412,-92.0613,1020.19,11111222 
WAVCIS,ioos:station:WAVCIS:CSI03:1,2009-12-06T04:00:00Z,29.4412,-92.0613,1020.15,11111222 
WAVCIS,ioos:station:WAVCIS:CSI03:1,2009-12-06T05:00:00Z,29.4412,-92.0613,1019.94,11111222 
WAVCIS,ioos:station:WAVCIS:CSI03:1,2009-12-06T06:00:00Z,29.4412,-92.0613,1019.69,11111222 
WAVCIS,ioos:station:WAVCIS:CSI03:1,2009-12-06T07:00:00Z,29.4412,-92.0613,1019.94,11111222 
WAVCIS,ioos:station:WAVCIS:CSI03:1,2009-12-06T08:00:00Z,29.4412,-92.0613,1019.41,11111222 
WAVCIS,ioos:station:WAVCIS:CSI03:1,2009-12-06T09:00:00Z,29.4412,-92.0613,1018.96,11111222 
WAVCIS,ioos:station:WAVCIS:CSI03:1,2009-12-06T10:00:00Z,29.4412,-92.0613,1018.88,11111222 
WAVCIS,ioos:station:WAVCIS:CSI03:1,2009-12-06T11:00:00Z,29.4412,-92.0613,1018.77,11111222 
WAVCIS,ioos:station:WAVCIS:CSI03:1,2009-12-06T12:00:00Z,29.4412,-92.0613,1018.99,11111222 
WAVCIS,ioos:station:WAVCIS:CSI03:1,2009-12-06T13:00:00Z,29.4412,-92.0613,1018.45,11111222 
WAVCIS,ioos:station:WAVCIS:CSI03:1,2009-12-06T14:00:00Z,29.4412,-92.0613,1019.03,11111222 
WAVCIS,ioos:station:WAVCIS:CSI03:1,2009-12-06T15:00:00Z,29.4412,-92.0613,1019.69,11111222 
WAVCIS,ioos:station:WAVCIS:CSI03:1,2009-12-06T16:00:00Z,29.4412,-92.0613,1019.46,11111222 
WAVCIS,ioos:station:WAVCIS:CSI03:1,2009-12-06T17:00:00Z,29.4412,-92.0613,1019.3,11111222 
WAVCIS,ioos:station:WAVCIS:CSI03:1,2009-12-06T18:00:00Z,29.4412,-92.0613,1018.63,11111222 
WAVCIS,ioos:station:WAVCIS:CSI03:1,2009-12-06T19:00:00Z,29.4412,-92.0613,1017.28,11111222 
WAVCIS,ioos:station:WAVCIS:CSI03:1,2009-12-06T20:00:00Z,29.4412,-92.0613,1016.27,11111222 
WAVCIS,ioos:station:WAVCIS:CSI03:1,2009-12-06T21:00:00Z,29.4412,-92.0613,1015.55,11111222 
WAVCIS,ioos:station:WAVCIS:CSI03:1,2009-12-06T22:00:00Z,29.4412,-92.0613,1015.61,11111222 
WAVCIS,ioos:station:WAVCIS:CSI03:1,2009-12-06T23:00:00Z,29.4412,-92.0613,1015.63,11111222 
WAVCIS,ioos:station:WAVCIS:CSI03:1,2009-12-07T00:00:00Z,29.4412,-92.0613,1015.37,11111222 
WAVCIS,ioos:station:WAVCIS:CSI03:1,2009-12-07T01:00:00Z,29.4412,-92.0613,1015.35,11111222 
WAVCIS,ioos:station:WAVCIS:CSI03:1,2009-12-07T02:00:00Z,29.4412,-92.0613,1014.88,11111222 
WAVCIS,ioos:station:WAVCIS:CSI03:1,2009-12-07T03:00:00Z,29.4412,-92.0613,1014.4,11111222 
WAVCIS,ioos:station:WAVCIS:CSI03:1,2009-12-07T04:00:00Z,29.4412,-92.0613,1014.95,11111222 
WAVCIS,ioos:station:WAVCIS:CSI03:1,2009-12-07T05:00:00Z,29.4412,-92.0613,1014.43,11111222 
WAVCIS,ioos:station:WAVCIS:CSI03:1,2009-12-07T06:00:00Z,29.4412,-92.0613,1014.4,11111222 
WAVCIS,ioos:station:WAVCIS:CSI03:1,2009-12-07T07:00:00Z,29.4412,-92.0613,1013.92,11111222 
WAVCIS,ioos:station:WAVCIS:CSI03:1,2009-12-07T08:00:00Z,29.4412,-92.0613,1013.56,11111222 
WAVCIS,ioos:station:WAVCIS:CSI03:1,2009-12-07T09:00:00Z,29.4412,-92.0613,1013.3,11111222 
WAVCIS,ioos:station:WAVCIS:CSI03:1,2009-12-07T10:00:00Z,29.4412,-92.0613,1013.35,11111222 
WAVCIS,ioos:station:WAVCIS:CSI03:1,2009-12-07T11:00:00Z,29.4412,-92.0613,1013.79,11111222 
WAVCIS,ioos:station:WAVCIS:CSI03:1,2009-12-07T12:00:00Z,29.4412,-92.0613,1014.14,11111222 
WAVCIS,ioos:station:WAVCIS:CSI03:1,2009-12-07T13:00:00Z,29.4412,-92.0613,1014.36,11111222 
WAVCIS,ioos:station:WAVCIS:CSI03:1,2009-12-07T14:00:00Z,29.4412,-92.0613,1015.66,11111222 
WAVCIS,ioos:station:WAVCIS:CSI03:1,2009-12-07T15:00:00Z,29.4412,-92.0613,1016.64,11111222 
WAVCIS,ioos:station:WAVCIS:CSI03:1,2009-12-07T16:00:00Z,29.4412,-92.0613,1016.4,11111222 
WAVCIS,ioos:station:WAVCIS:CSI03:1,2009-12-07T17:00:00Z,29.4412,-92.0613,1015.77,11111222 
WAVCIS,ioos:station:WAVCIS:CSI03:1,2009-12-07T18:00:00Z,29.4412,-92.0613,1014.73,11111222 
WAVCIS,ioos:station:WAVCIS:CSI03:1,2009-12-07T19:00:00Z,29.4412,-92.0613,1013.59,11111222 
WAVCIS,ioos:station:WAVCIS:CSI03:1,2009-12-07T20:00:00Z,29.4412,-92.0613,1013.29,11111222 
WAVCIS,ioos:station:WAVCIS:CSI03:1,2009-12-07T21:00:00Z,29.4412,-92.0613,1013.11,11111222 
WAVCIS,ioos:station:WAVCIS:CSI03:1,2009-12-07T22:00:00Z,29.4412,-92.0613,1012.85,11111222 
WAVCIS,ioos:station:WAVCIS:CSI03:1,2009-12-07T23:00:00Z,29.4412,-92.0613,1013.41,11111222 
WAVCIS,ioos:station:WAVCIS:CSI03:1,2009-12-08T00:00:00Z,29.4412,-92.0613,1013.75,11111222 
WAVCIS,ioos:station:WAVCIS:CSI03:1,2009-12-08T01:00:00Z,29.4412,-92.0613,1011.97,11111222 
WAVCIS,ioos:station:WAVCIS:CSI03:1,2009-12-08T02:00:00Z,29.4412,-92.0613,1011.66,11111222 
WAVCIS,ioos:station:WAVCIS:CSI03:1,2009-12-08T03:00:00Z,29.4412,-92.0613,1011.11,11111222 
WAVCIS,ioos:station:WAVCIS:CSI03:1,2009-12-08T04:00:00Z,29.4412,-92.0613,1010.03,11111222 
WAVCIS,ioos:station:WAVCIS:CSI03:1,2009-12-08T05:00:00Z,29.4412,-92.0613,1009.56,11111222 
WAVCIS,ioos:station:WAVCIS:CSI03:1,2009-12-08T06:00:00Z,29.4412,-92.0613,1009.12,11111222 
WAVCIS,ioos:station:WAVCIS:CSI03:1,2009-12-08T07:00:00Z,29.4412,-92.0613,1009.77,11111222 
WAVCIS,ioos:station:WAVCIS:CSI03:1,2009-12-08T08:00:00Z,29.4412,-92.0613,1009.29,11111222 
WAVCIS,ioos:station:WAVCIS:CSI03:1,2009-12-08T09:00:00Z,29.4412,-92.0613,1008.95,11111222 
WAVCIS,ioos:station:WAVCIS:CSI03:1,2009-12-08T10:00:00Z,29.4412,-92.0613,1008.97,11111222 
WAVCIS,ioos:station:WAVCIS:CSI03:1,2009-12-08T11:00:00Z,29.4412,-92.0613,1009.17,11111222 
WAVCIS,ioos:station:WAVCIS:CSI03:1,2009-12-08T12:00:00Z,29.4412,-92.0613,1009.28,11111222 
WAVCIS,ioos:station:WAVCIS:CSI03:1,2009-12-08T13:00:00Z,29.4412,-92.0613,1009.36,11111222 
WAVCIS,ioos:station:WAVCIS:CSI03:1,2009-12-08T14:00:00Z,29.4412,-92.0613,1008.72,11111222 
WAVCIS,ioos:station:WAVCIS:CSI03:1,2009-12-08T15:00:00Z,29.4412,-92.0613,1009.06,11111222 
WAVCIS,ioos:station:WAVCIS:CSI03:1,2009-12-08T16:00:00Z,29.4412,-92.0613,1008.12,11111222 
WAVCIS,ioos:station:WAVCIS:CSI03:1,2009-12-08T17:00:00Z,29.4412,-92.0613,1006.682,11111222 
WAVCIS,ioos:station:WAVCIS:CSI03:1,2009-12-08T18:00:00Z,29.4412,-92.0613,1005.218,11111222 
WAVCIS,ioos:station:WAVCIS:CSI03:1,2009-12-08T19:00:00Z,29.4412,-92.0613,1003.985,11111222 
WAVCIS,ioos:station:WAVCIS:CSI03:1,2009-12-08T20:00:00Z,29.4412,-92.0613,1003.143,11111222 
WAVCIS,ioos:station:WAVCIS:CSI03:1,2009-12-08T21:00:00Z,29.4412,-92.0613,1002.894,11111222 
WAVCIS,ioos:station:WAVCIS:CSI03:1,2009-12-08T22:00:00Z,29.4412,-92.0613,1002.985,11111222 
WAVCIS,ioos:station:WAVCIS:CSI03:1,2009-12-08T23:00:00Z,29.4412,-92.0613,1002.851,11111222 
WAVCIS,ioos:station:WAVCIS:CSI03:1,2009-12-09T00:00:00Z,29.4412,-92.0613,1002.989,11111222 
WAVCIS,ioos:station:WAVCIS:CSI03:1,2009-12-09T01:00:00Z,29.4412,-92.0613,1003.693,11111222 
WAVCIS,ioos:station:WAVCIS:CSI03:1,2009-12-09T02:00:00Z,29.4412,-92.0613,1005.094,11111222 
WAVCIS,ioos:station:WAVCIS:CSI03:1,2009-12-09T03:00:00Z,29.4412,-92.0613,1004.636,11111222 
WAVCIS,ioos:station:WAVCIS:CSI03:1,2009-12-09T04:00:00Z,29.4412,-92.0613,1005.819,11111222 
WAVCIS,ioos:station:WAVCIS:CSI03:1,2009-12-09T05:00:00Z,29.4412,-92.0613,1005.305,11111222 
WAVCIS,ioos:station:WAVCIS:CSI03:1,2009-12-09T06:00:00Z,29.4412,-92.0613,1004.705,11111222 
WAVCIS,ioos:station:WAVCIS:CSI03:1,2009-12-09T07:00:00Z,29.4412,-92.0613,1004.537,11111222 
WAVCIS,ioos:station:WAVCIS:CSI03:1,2009-12-09T08:00:00Z,29.4412,-92.0613,1005.083,11111222 
WAVCIS,ioos:station:WAVCIS:CSI03:1,2009-12-09T09:00:00Z,29.4412,-92.0613,1004.794,11111222 
WAVCIS,ioos:station:WAVCIS:CSI03:1,2009-12-09T10:00:00Z,29.4412,-92.0613,1004.764,11111222 
WAVCIS,ioos:station:WAVCIS:CSI03:1,2009-12-09T11:00:00Z,29.4412,-92.0613,1005.462,11111222 
WAVCIS,ioos:station:WAVCIS:CSI03:1,2009-12-09T12:00:00Z,29.4412,-92.0613,1006.054,11111222 
WAVCIS,ioos:station:WAVCIS:CSI03:1,2009-12-09T13:00:00Z,29.4412,-92.0613,1007.08,11111222 
WAVCIS,ioos:station:WAVCIS:CSI03:1,2009-12-09T14:00:00Z,29.4412,-92.0613,1008.05,11111222 
WAVCIS,ioos:station:WAVCIS:CSI03:1,2009-12-09T15:00:00Z,29.4412,-92.0613,1008.94,11111222 
WAVCIS,ioos:station:WAVCIS:CSI03:1,2009-12-09T16:00:00Z,29.4412,-92.0613,1009.76,11111222 
WAVCIS,ioos:station:WAVCIS:CSI03:1,2009-12-09T17:00:00Z,29.4412,-92.0613,1009.93,11111222 
WAVCIS,ioos:station:WAVCIS:CSI03:1,2009-12-09T18:00:00Z,29.4412,-92.0613,1009.22,11111222 
WAVCIS,ioos:station:WAVCIS:CSI03:1,2009-12-09T19:00:00Z,29.4412,-92.0613,1008.26,11111222 
WAVCIS,ioos:station:WAVCIS:CSI03:1,2009-12-09T20:00:00Z,29.4412,-92.0613,1007.78,11111222 
WAVCIS,ioos:station:WAVCIS:CSI03:1,2009-12-09T21:00:00Z,29.4412,-92.0613,1008.65,11111222 
WAVCIS,ioos:station:WAVCIS:CSI03:1,2009-12-09T22:00:00Z,29.4412,-92.0613,1009.28,11111222 
WAVCIS,ioos:station:WAVCIS:CSI03:1,2009-12-09T23:00:00Z,29.4412,-92.0613,1010.06,11111222 
WAVCIS,ioos:station:WAVCIS:CSI03:1,2009-12-10T00:00:00Z,29.4412,-92.0613,1010.79,11111222 
WAVCIS,ioos:station:WAVCIS:CSI03:1,2009-12-10T01:00:00Z,29.4412,-92.0613,1011.64,11111222 
WAVCIS,ioos:station:WAVCIS:CSI03:1,2009-12-10T02:00:00Z,29.4412,-92.0613,1012.41,11111222 
WAVCIS,ioos:station:WAVCIS:CSI03:1,2009-12-10T03:00:00Z,29.4412,-92.0613,1013.3,11111222 
WAVCIS,ioos:station:WAVCIS:CSI03:1,2009-12-10T04:00:00Z,29.4412,-92.0613,1013.74,11111222 
WAVCIS,ioos:station:WAVCIS:CSI03:1,2009-12-10T05:00:00Z,29.4412,-92.0613,1013.77,11111222 
WAVCIS,ioos:station:WAVCIS:CSI03:1,2009-12-10T06:00:00Z,29.4412,-92.0613,1014.09,11111222 
WAVCIS,ioos:station:WAVCIS:CSI03:1,2009-12-10T07:00:00Z,29.4412,-92.0613,1014.09,11111222 
WAVCIS,ioos:station:WAVCIS:CSI03:1,2009-12-10T08:00:00Z,29.4412,-92.0613,1014.39,11111222 
WAVCIS,ioos:station:WAVCIS:CSI03:1,2009-12-10T09:00:00Z,29.4412,-92.0613,1014.9,11111222 
WAVCIS,ioos:station:WAVCIS:CSI03:1,2009-12-10T10:00:00Z,29.4412,-92.0613,1015.53,11111222 
WAVCIS,ioos:station:WAVCIS:CSI03:1,2009-12-10T11:00:00Z,29.4412,-92.0613,1015.65,11111222 
WAVCIS,ioos:station:WAVCIS:CSI03:1,2009-12-10T12:00:00Z,29.4412,-92.0613,1016.4,11111222 
WAVCIS,ioos:station:WAVCIS:CSI03:1,2009-12-10T13:00:00Z,29.4412,-92.0613,1017.19,11111222 
WAVCIS,ioos:station:WAVCIS:CSI03:1,2009-12-10T14:00:00Z,29.4412,-92.0613,1018.31,11111222 
WAVCIS,ioos:station:WAVCIS:CSI03:1,2009-12-10T15:00:00Z,29.4412,-92.0613,1019.39,11111222 
WAVCIS,ioos:station:WAVCIS:CSI03:1,2009-12-10T16:00:00Z,29.4412,-92.0613,1019.94,11111222 
WAVCIS,ioos:station:WAVCIS:CSI03:1,2009-12-10T17:00:00Z,29.4412,-92.0613,1019.31,11111222 
WAVCIS,ioos:station:WAVCIS:CSI03:1,2009-12-10T18:00:00Z,29.4412,-92.0613,1018.86,11111222 
WAVCIS,ioos:station:WAVCIS:CSI03:1,2009-12-10T19:00:00Z,29.4412,-92.0613,1018.2,11111222 
WAVCIS,ioos:station:WAVCIS:CSI03:1,2009-12-10T20:00:00Z,29.4412,-92.0613,1018.32,11111222 
WAVCIS,ioos:station:WAVCIS:CSI03:1,2009-12-10T21:00:00Z,29.4412,-92.0613,1018.44,11111222 
WAVCIS,ioos:station:WAVCIS:CSI03:1,2009-12-10T22:00:00Z,29.4412,-92.0613,1019.0,11111222 
WAVCIS,ioos:station:WAVCIS:CSI03:1,2009-12-10T23:00:00Z,29.4412,-92.0613,1019.66,11111222 
WAVCIS,ioos:station:WAVCIS:CSI03:1,2009-12-11T00:00:00Z,29.4412,-92.0613,1020.02,11111222 
WAVCIS,ioos:station:WAVCIS:CSI03:1,2009-12-11T01:00:00Z,29.4412,-92.0613,1020.15,11111222 
WAVCIS,ioos:station:WAVCIS:CSI03:1,2009-12-11T02:00:00Z,29.4412,-92.0613,1020.53,11111222 
WAVCIS,ioos:station:WAVCIS:CSI03:1,2009-12-11T03:00:00Z,29.4412,-92.0613,1020.98,11111222 
WAVCIS,ioos:station:WAVCIS:CSI03:1,2009-12-11T04:00:00Z,29.4412,-92.0613,1020.69,11111222 
WAVCIS,ioos:station:WAVCIS:CSI03:1,2009-12-11T05:00:00Z,29.4412,-92.0613,1021.04,11111222 
WAVCIS,ioos:station:WAVCIS:CSI03:1,2009-12-11T06:00:00Z,29.4412,-92.0613,1021.03,11111222 
WAVCIS,ioos:station:WAVCIS:CSI03:1,2009-12-11T07:00:00Z,29.4412,-92.0613,1020.69,11111222 
WAVCIS,ioos:station:WAVCIS:CSI03:1,2009-12-11T08:00:00Z,29.4412,-92.0613,1020.96,11111222 
WAVCIS,ioos:station:WAVCIS:CSI03:1,2009-12-11T09:00:00Z,29.4412,-92.0613,1020.65,11111222 
WAVCIS,ioos:station:WAVCIS:CSI03:1,2009-12-11T10:00:00Z,29.4412,-92.0613,1020.54,11111222 
WAVCIS,ioos:station:WAVCIS:CSI03:1,2009-12-11T11:00:00Z,29.4412,-92.0613,1020.39,11111222 
WAVCIS,ioos:station:WAVCIS:CSI03:1,2009-12-11T12:00:00Z,29.4412,-92.0613,1020.9,11111222 
WAVCIS,ioos:station:WAVCIS:CSI03:1,2009-12-11T13:00:00Z,29.4412,-92.0613,1021.1,11111222 
WAVCIS,ioos:station:WAVCIS:CSI03:1,2009-12-11T14:00:00Z,29.4412,-92.0613,1022.08,11111222 
WAVCIS,ioos:station:WAVCIS:CSI03:1,2009-12-11T15:00:00Z,29.4412,-92.0613,1022.77,11111222 
WAVCIS,ioos:station:WAVCIS:CSI03:1,2009-12-11T16:00:00Z,29.4412,-92.0613,1023.01,11111222 
WAVCIS,ioos:station:WAVCIS:CSI03:1,2009-12-11T17:00:00Z,29.4412,-92.0613,1022.72,11111222 
WAVCIS,ioos:station:WAVCIS:CSI03:1,2009-12-11T18:00:00Z,29.4412,-92.0613,1021.56,11111222 
WAVCIS,ioos:station:WAVCIS:CSI03:1,2009-12-11T19:00:00Z,29.4412,-92.0613,1020.75,11111222 
WAVCIS,ioos:station:WAVCIS:CSI03:1,2009-12-11T20:00:00Z,29.4412,-92.0613,1020.12,11111222 
WAVCIS,ioos:station:WAVCIS:CSI03:1,2009-12-11T21:00:00Z,29.4412,-92.0613,1019.42,11111222 